Location: Miles
(41.4492°N, 81.6087°W)
Time: 22:09:41
(UTC+00:00)

Courier 1B Rocket - Pass Details

Date: 15 September 2024
Orbit: 920 x 1201 km, 28.2° (Epoch: 09 October)

Event Time Altitude Azimuth Distance (km) Brightness Sun altitude
Rises 02:09:09 0° 257° (WSW) 3,936 8.8 -27.8°
Reaches altitude 10° 02:13:02 10° 238° (WSW) 3,026 7.8 -28.4°
Maximum altitude 02:17:28 17° 201° (SSW) 2,595 7.1 -29.1°
Enters shadow 02:17:36 17° 200° (SSW) 2,597 7.0 -29.1°
Drops below altitude 10° 02:22:00 10° 165° (SSE) 3,103 - -29.8°
Sets 02:26:04 0° 146° (SE) 4,082 - -30.4°
